This demonstration page uses our WeatherBlox Daily Observations layout. Learn more.

Left ArrowRight Arrow

Hourly Observations for January 3, 2016

Temp ( °F °C ) Dew Point ( °F °C ) Humidity (%) Winds ( mph kmh ) Pressure ( in mb ) Visibility ( mi km ) Precip ( " mm )
12:51 am 00:51 Clear 37 2.8 31 -0.6 79 79 SE 9 15 30.25 1025 10 16 N/A
1:51 am 01:51 Clear 37 2.8 31 -0.6 79 79 SE 10 17 30.24 1024 10 16 N/A
2:51 am 02:51 Clear 36 2.2 31 -0.6 82 82 SE 10 17 30.24 1024 10 16 N/A
3:51 am 03:51 Clear 36 2.2 31 -0.6 82 82 E 10 17 30.24 1024 10 16 N/A
4:51 am 04:51 Clear 35 1.7 31 -0.6 85 85 ESE 9 15 30.25 1024 10 16 N/A
5:51 am 05:51 Clear 35 1.7 30 -1.1 82 82 ESE 10 17 30.25 1025 10 16 N/A
6:51 am 06:51 Clear 34 1.1 29 -1.7 82 82 ESE 9 15 30.27 1025 10 16 N/A
7:51 am 07:51 Sunny 35 1.7 29 -1.7 78 78 E 8 13 30.30 1026 10 16 N/A
8:51 am 08:51 Sunny 42 5.6 31 -0.6 65 65 E 14 22 30.29 1026 10 16 N/A
9:51 am 09:51 Sunny 44 6.7 31 -0.6 60 60 E 14 22 30.31 1026 10 16 N/A
10:51 am 10:51 Sunny 47 8.3 30 -1.1 52 52 ESE 16 26 30.28 1026 10 16 N/A
11:51 am 11:51 Sunny 50 10 30 -1.1 46 46 SE 15 24 30.24 1024 10 16 N/A
12:51 pm 12:51 Sunny 53 11.7 29 -1.7 40 40 ESE 15 24 30.18 1022 10 16 N/A
1:51 pm 13:51 Sunny 54 12.2 28 -2.2 37 37 SSE 13 20 30.14 1021 10 16 N/A
2:51 pm 14:51 Sunny 57 13.9 28 -2.2 33 33 SE 12 19 30.11 1020 10 16 N/A
3:51 pm 15:51 Sunny 58 14.4 27 -2.8 31 31 SE 13 20 30.09 1019 10 16 N/A
4:51 pm 16:51 Sunny 56 13.3 27 -2.8 33 33 E 16 26 30.09 1019 10 16 N/A
5:51 pm 17:51 Clear 51 10.6 33 0.6 50 50 SE 9 15 30.11 1020 10 16 N/A
6:51 pm 18:51 Clear 48 8.9 33 0.6 56 56 SE 13 20 30.13 1020 10 16 N/A
7:51 pm 19:51 Clear 46 7.8 33 0.6 61 61 SSE 13 20 30.14 1021 10 16 N/A
8:51 pm 20:51 Clear 45 7.2 33 0.6 63 63 ESE 10 17 30.13 1020 10 16 N/A
9:51 pm 21:51 Clear 45 7.2 33 0.6 63 63 SSE 14 22 30.14 1021 10 16 N/A
10:51 pm 22:51 Clear 44 6.7 33 0.6 65 65 SSE 12 19 30.13 1020 10 16 N/A
11:51 pm 23:51 Clear 43 6.1 33 0.6 68 68 SSE 13 20 30.11 1020 10 16 N/A

Powered by AerisWeather